Location: *
(38.4303°S, 157.0822°W)
Time: 12:55:54
(UTC+00:00)

Meteor 1-31 Rocket - Pass Details

Date: 21 May 2024
Orbit: 493 x 517 km, 97.7° (Epoch: 14 June)

Event Time Altitude Azimuth Distance (km) Brightness Sun altitude
Rises 16:43:22 0° 0° (N) 2,579 6.5 -9.1°
Reaches altitude 10° 16:45:28 10° 354° (N) 1,708 5.5 -8.7°
Maximum altitude 16:49:01 46° 279° (W) 691 3.0 -8.0°
Drops below altitude 10° 16:52:39 10° 205° (SSW) 1,749 5.0 -7.4°
Sets 16:54:51 0° 198° (SSW) 2,648 5.9 -7.0°
